Location: Waco, TX
(31.5480°N, 97.1670°W)
Time: 15:32:53
(UTC-05:00)

N. Korean satellite - Visible Passes

Search period start: 18 October 2017 00:00
Search period end: 28 October 2017 00:00
Orbit: 459 x 517 km, 97.2° (Epoch: 18 October)

Date Brightness Start Highest point End Pass type
(mag) Time Alt. Az. Time Alt. Az. Time Alt. Az.
18 Oct 7.7 19:56:52 10° S 20:00:18 46° W 20:03:42 10° NNW visible
19 Oct 6.4 19:33:27 10° SSE 19:36:59 73° ENE 19:40:29 10° N visible
21 Oct 9.3 20:21:08 10° SSW 20:23:51 21° W 20:26:33 10° NW visible
22 Oct 7.7 19:57:05 10° S 20:00:28 45° W 20:03:50 10° NNW visible
23 Oct 6.4 19:33:38 10° SSE 19:37:08 74° ENE 19:40:36 10° N visible
24 Oct 7.2 19:10:43 10° SE 19:13:51 31° ENE 19:16:58 10° N visible
25 Oct 9.3 20:21:19 10° SW 20:23:58 20° W 20:26:37 10° NW visible
26 Oct 7.7 19:57:13 10° S 20:00:34 44° W 20:03:54 10° NNW visible
27 Oct 6.3 19:33:45 10° SSE 19:37:13 75° ENE 19:40:40 10° N visible
